Weather History for KLNK - January, 2014

Change the Weather History Date:

Wednesday, January 22, 2014

  Actual Average Record
Temperature  
Mean Temperature 16 °F 25 °F  
Max Temperature 32 °F 36 °F 60 °F (2009)
Min Temperature 0 °F 14 °F -14 °F (1930)
Degree Days  
Heating Degree Days 49 40  
Month to date heating degree days 927 896  
Since 1 July heating degree days 3545 3341  
Cooling Degree Days 0 0  
Month to date cooling degree days 0 0  
Year to date cooling degree days 0 0  
Moisture  
Dew Point 5 °F    
Average Humidity 56    
Maximum Humidity 73    
Minimum Humidity 39    
Precipitation  
Precipitation T in 0.02 in 0.64 in (1982)
Month to date precipitation 0.20 0.43  
Year to date precipitation 0.20 0.43  
Snow  
Snow 0.00 in 0.20 in - ()
Month to date snowfall 3.3 3.6  
Since 1 July snowfall 9.2 12.3  
Snow Depth 0.00 in    
Sea Level Pressure  
Sea Level Pressure 30.32 in    
Wind  
Wind Speed 16 mph (NNW)    
Max Wind Speed 36 mph    
Max Gust Speed 42 mph    
Visibility 10 miles    
Events      
T = Trace of Precipitation, MM = Missing Value Source: NWS Daily Summary

Daily Weather History Graph

Daily Weather History Graph

Search for Another Location

Airport or City:

Trip Planner

Search our weather history database for the weather conditions in past years. The results will help you decide how hot, cold, wet, or windy it might be!

Date:

Astronomy

Jan. 22, 2014 Rise Set
Actual Time 7:45 AM CST 5:32 PM CST
Civil Twilight 7:15 AM CST 6:02 PM CST
Nautical Twilight 6:42 AM CST 6:35 PM CST
Astronomical Twilight 6:09 AM CST 7:08 PM CST
Moon No Moon Rise 10:44 AM CST (1/22)
Length of Visible Light 10h 46m
Length of Day
9h 46m
Waning Gibbous, 65% of the Moon is Illuminated
Jan 22
Waning Gibbous
Jan 23
Last Quarter
Jan 30
New
Feb 6
First Quarter
Feb 14
Full

Hourly Weather History & Observations

Time (CST) Temp. Windchill Dew Point Humidity Pressure Visibility Wind Dir Wind Speed Gust Speed Precip Events Conditions
12:54 AM 27.0 °F 20.5 °F 12.9 °F 56% 30.13 in 10.0 mi WNW 5.8 mph - N/A   Overcast
1:54 AM 28.0 °F 20.8 °F 16.0 °F 61% 30.12 in 10.0 mi WNW 6.9 mph - N/A   Overcast
2:54 AM 27.0 °F 23.0 °F 16.0 °F 63% 30.13 in 10.0 mi North 3.5 mph - N/A   Overcast
3:54 AM 23.0 °F - 14.0 °F 68% 30.14 in 10.0 mi Calm Calm - N/A   Clear
4:54 AM 25.0 °F 13.1 °F 16.0 °F 69% 30.15 in 10.0 mi NNW 13.8 mph - N/A   Clear
5:54 AM 24.1 °F 11.5 °F 15.1 °F 69% 30.17 in 10.0 mi NNW 15.0 mph - N/A   Clear
6:54 AM 23.0 °F 9.6 °F 14.0 °F 68% 30.21 in 10.0 mi NNW 16.1 mph - N/A   Partly Cloudy
7:54 AM 19.9 °F 6.7 °F 12.0 °F 71% 30.23 in 10.0 mi NNW 13.8 mph - N/A   Clear
8:34 AM 19.9 °F 10.1 °F 12.0 °F 71% 30.16 in 2.5 mi NW 8.1 mph - N/A   Haze
8:42 AM 19.9 °F 11.1 °F 12.0 °F 71% 30.16 in 10.0 mi NW 6.9 mph - N/A   Partly Cloudy
8:54 AM 21.0 °F 11.4 °F 12.0 °F 68% 30.22 in 10.0 mi WNW 8.1 mph - N/A   Clear
9:54 AM 26.1 °F 15.0 °F 10.9 °F 53% 30.22 in 10.0 mi West 12.7 mph - N/A   Clear
10:54 AM 28.9 °F 19.2 °F 8.1 °F 41% 30.22 in 10.0 mi NW 11.5 mph - N/A   Overcast
11:54 AM 30.9 °F 21.7 °F 9.0 °F 40% 30.22 in 10.0 mi WNW 11.5 mph - N/A   Overcast
12:54 PM 32.0 °F 21.2 °F 10.9 °F 42% 30.21 in 10.0 mi NW 16.1 mph - N/A   Overcast
1:54 PM 32.0 °F 19.5 °F 17.1 °F 54% 30.21 in 7.0 mi North 21.9 mph 32.2 mph 0.00 in   Overcast
2:54 PM 28.0 °F 13.0 °F 10.9 °F 49% 30.27 in 10.0 mi North 26.5 mph 31.1 mph 0.00 in   Overcast
3:54 PM 23.0 °F 6.3 °F 6.1 °F 48% 30.33 in 10.0 mi North 26.5 mph 33.4 mph N/A   Mostly Cloudy
4:54 PM 17.1 °F -2.7 °F -0.9 °F 45% 30.38 in 10.0 mi North 29.9 mph 38.0 mph N/A   Clear
5:54 PM 10.9 °F -8.8 °F -6.0 °F 47% 30.45 in 10.0 mi North 23.0 mph 27.6 mph N/A   Clear
6:54 PM 8.1 °F -13.0 °F -9.0 °F 46% 30.51 in 10.0 mi North 24.2 mph 33.4 mph N/A   Clear
7:54 PM 6.1 °F -16.5 °F -9.9 °F 48% 30.55 in 10.0 mi North 26.5 mph 32.2 mph N/A   Clear
8:54 PM 3.0 °F -16.7 °F -9.9 °F 55% 30.60 in 10.0 mi North 17.3 mph 24.2 mph N/A   Clear
9:54 PM 1.9 °F -19.2 °F -11.9 °F 52% 30.63 in 10.0 mi North 19.6 mph 27.6 mph N/A   Clear
10:54 PM 1.0 °F -14.9 °F -11.9 °F 55% 30.68 in 10.0 mi NNW 10.4 mph - N/A   Clear
11:54 PM -0.0 °F -18.0 °F -11.9 °F 57% 30.70 in 10.0 mi North 12.7 mph - N/A   Clear